Wahpeton, ND

2:56 AM CDT on August 28, 2016 (GMT -0500)
Stern

Weather History for KBWP - August, 2013

Change the Weather History Date:

Saturday, August 24, 2013

  Actual Average (KFFM) Record (KFFM)
Temperature  
Mean Temperature 82 °F -  
Max Temperature 93 °F 78 °F 95 °F (1975)
Min Temperature 71 °F 58 °F 43 °F (1958)
Cooling Degree Days 17    
Growing Degree Days 32 (Base 50)    
Moisture  
Dew Point 66 °F    
Average Humidity 63    
Maximum Humidity 88    
Minimum Humidity 34    
Precipitation  
Precipitation 0.00 in - - ()
Sea Level Pressure  
Sea Level Pressure 29.84 in    
Wind  
Wind Speed 15 mph (South)    
Max Wind Speed 24 mph    
Max Gust Speed 31 mph    
Visibility 10 miles    
Events      
Averages and records for this station are not official NWS values.
T = Trace of Precipitation, MM = Missing Value Source: NWS Daily Summary

Daily Weather History Graph

Daily Weather History Graph

Search for Another Location

Airport or City:

Trip Planner

Search our weather history database for the weather conditions in past years. The results will help you decide how hot, cold, wet, or windy it might be!

Date:

Astronomy

Aug. 24, 2013 Rise Set
Actual Time 6:37 AM CDT 8:19 PM CDT
Civil Twilight 6:05 AM CDT 8:51 PM CDT
Nautical Twilight 5:26 AM CDT 9:29 PM CDT
Astronomical Twilight 4:44 AM CDT 10:11 PM CDT
Moon 9:55 PM CDT (8/24) 10:55 AM CDT (8/24)
Length of Visible Light 14h 45m
Length of Day
13h 42m
Waning Gibbous, 84% of the Moon is Illuminated
Aug 24
Waning Gibbous
Aug 28
Last Quarter
Sep 5
New
Sep 12
First Quarter
Sep 19
Full

Hourly Weather History & Observations

Time (CDT) Temp. Heat Index Dew Point Humidity Pressure Visibility Wind Dir Wind Speed Gust Speed Precip Events Conditions
12:15 AM 73.4 °F - 68.0 °F 83% 29.93 in 10.0 mi SSE 15.0 mph 20.7 mph N/A   Clear
12:35 AM 73.4 °F - 68.0 °F 83% 29.93 in 10.0 mi SSE 15.0 mph 20.7 mph N/A   Clear
12:55 AM 73.4 °F - 68.0 °F 83% 29.92 in 10.0 mi SSE 16.1 mph 20.7 mph N/A   Clear
1:15 AM 73.4 °F - 68.0 °F 83% 29.92 in 10.0 mi SSE 15.0 mph 18.4 mph N/A   Clear
1:35 AM 73.4 °F - 68.0 °F 83% 29.93 in 10.0 mi SSE 13.8 mph 17.3 mph N/A   Clear
1:55 AM 71.6 °F - 66.2 °F 83% 29.92 in 10.0 mi SSE 12.7 mph 17.3 mph N/A   Clear
2:15 AM 71.6 °F - 66.2 °F 83% 29.93 in 10.0 mi SSE 13.8 mph - N/A   Clear
2:35 AM 71.6 °F - 68.0 °F 88% 29.92 in 10.0 mi SSE 15.0 mph 19.6 mph N/A   Mostly Cloudy
2:55 AM 71.6 °F - 66.2 °F 83% 29.92 in 10.0 mi SSE 12.7 mph - N/A   Mostly Cloudy
3:15 AM 71.6 °F - 66.2 °F 83% 29.91 in 10.0 mi SSE 12.7 mph 17.3 mph N/A   Clear
3:35 AM 71.6 °F - 66.2 °F 83% 29.91 in 10.0 mi SSE 12.7 mph 19.6 mph N/A   Clear
3:55 AM 71.6 °F - 66.2 °F 83% 29.91 in 10.0 mi SSE 13.8 mph 17.3 mph N/A   Clear
4:15 AM 71.6 °F - 66.2 °F 83% 29.91 in 10.0 mi SSE 11.5 mph - N/A   Clear
4:35 AM 71.6 °F - 66.2 °F 83% 29.91 in 10.0 mi SSE 12.7 mph - N/A   Clear
4:55 AM 71.6 °F - 66.2 °F 83% 29.91 in 10.0 mi SSE 12.7 mph - N/A   Clear
5:15 AM 71.6 °F - 66.2 °F 83% 29.90 in 10.0 mi SSE 11.5 mph - N/A   Clear
5:35 AM 71.6 °F - 66.2 °F 83% 29.90 in 10.0 mi SSE 12.7 mph - N/A   Clear
5:55 AM 71.6 °F - 66.2 °F 83% 29.90 in 10.0 mi SSE 13.8 mph - N/A   Clear
6:15 AM 71.6 °F - 66.2 °F 83% 29.89 in 10.0 mi SSE 12.7 mph - N/A   Clear
6:35 AM 71.6 °F - 66.2 °F 83% 29.90 in 7.0 mi SSE 12.7 mph 18.4 mph N/A   Clear
6:55 AM 71.6 °F - 66.2 °F 83% 29.89 in 7.0 mi SSE 13.8 mph - N/A   Clear
7:15 AM 71.6 °F - 66.2 °F 83% 29.89 in 7.0 mi SSE 13.8 mph 21.9 mph N/A   Clear
7:35 AM 71.6 °F - 66.2 °F 83% 29.88 in 10.0 mi SSE 15.0 mph 19.6 mph N/A   Clear
7:55 AM 73.4 °F - 66.2 °F 78% 29.88 in 10.0 mi SSE 15.0 mph 19.6 mph N/A   Clear
8:15 AM 73.4 °F - 66.2 °F 78% 29.88 in 10.0 mi SSE 16.1 mph 20.7 mph N/A   Clear
8:35 AM 75.2 °F - 68.0 °F 78% 29.88 in 10.0 mi SSE 17.3 mph 24.2 mph N/A   Clear
8:55 AM 77.0 °F - 68.0 °F 74% 29.88 in 10.0 mi SSE 17.3 mph 24.2 mph N/A   Clear
9:15 AM 77.0 °F - 68.0 °F 74% 29.88 in 10.0 mi SSE 18.4 mph 24.2 mph N/A   Clear
9:35 AM 78.8 °F - 66.2 °F 65% 29.87 in 10.0 mi South 16.1 mph 25.3 mph N/A   Clear
9:55 AM 78.8 °F - 66.2 °F 65% 29.86 in 10.0 mi South 19.6 mph 26.5 mph N/A   Clear
10:15 AM 80.6 °F 82.7 °F 66.2 °F 61% 29.85 in 10.0 mi South 16.1 mph 23.0 mph N/A   Clear
10:35 AM 82.4 °F 83.9 °F 64.4 °F 54% 29.84 in 10.0 mi South 15.0 mph 26.5 mph N/A   Clear
10:55 AM 82.4 °F 83.9 °F 64.4 °F 54% 29.84 in 10.0 mi South 21.9 mph 27.6 mph N/A   Clear
11:15 AM 82.4 °F 83.9 °F 64.4 °F 54% 29.84 in 10.0 mi South 21.9 mph 28.8 mph N/A   Clear
11:35 AM 86.0 °F 87.3 °F 64.4 °F 48% 29.84 in 10.0 mi South 20.7 mph 27.6 mph N/A   Clear
11:55 AM 86.0 °F 87.3 °F 64.4 °F 48% 29.83 in 10.0 mi South 19.6 mph 24.2 mph N/A   Clear
12:15 PM 87.8 °F 89.4 °F 64.4 °F 46% 29.83 in 10.0 mi South 24.2 mph 31.1 mph N/A   Clear
12:35 PM 89.6 °F 91.1 °F 64.4 °F 43% 29.82 in 10.0 mi South 20.7 mph 27.6 mph N/A   Clear
12:55 PM 89.6 °F 91.1 °F 64.4 °F 43% 29.81 in 10.0 mi South 21.9 mph 27.6 mph N/A   Clear
1:15 PM 89.6 °F 91.1 °F 64.4 °F 43% 29.81 in 10.0 mi SSW 16.1 mph 28.8 mph N/A   Clear
1:35 PM 89.6 °F 91.1 °F 64.4 °F 43% 29.80 in 10.0 mi SSW 21.9 mph 26.5 mph N/A   Clear
1:55 PM 91.4 °F 93.2 °F 64.4 °F 41% 29.79 in 10.0 mi SSW 19.6 mph 29.9 mph N/A   Clear
2:15 PM 91.4 °F 92.1 °F 62.6 °F 38% 29.79 in 10.0 mi South 18.4 mph 28.8 mph N/A   Clear
2:35 PM 91.4 °F 92.1 °F 62.6 °F 38% 29.79 in 10.0 mi South 18.4 mph 27.6 mph N/A   Clear
2:55 PM 91.4 °F 92.1 °F 62.6 °F 38% 29.79 in 10.0 mi South 20.7 mph 27.6 mph N/A   Clear
3:15 PM 93.2 °F 93.3 °F 60.8 °F 34% 29.78 in 10.0 mi South 20.7 mph 27.6 mph N/A   Clear
3:35 PM 91.4 °F 92.1 °F 62.6 °F 38% 29.78 in 10.0 mi South 18.4 mph 26.5 mph N/A   Clear
3:55 PM 93.2 °F 94.1 °F 62.6 °F 36% 29.77 in 10.0 mi South 18.4 mph 28.8 mph N/A   Clear
4:15 PM 91.4 °F 93.2 °F 64.4 °F 41% 29.77 in 10.0 mi South 15.0 mph 21.9 mph N/A   Clear
4:35 PM 93.2 °F 94.9 °F 64.4 °F 38% 29.77 in 10.0 mi SSE 16.1 mph - N/A   Clear
4:55 PM 91.4 °F 93.2 °F 64.4 °F 41% 29.76 in 10.0 mi SSW 17.3 mph 26.5 mph N/A   Clear
5:15 PM 91.4 °F 93.2 °F 64.4 °F 41% 29.76 in 10.0 mi SSW 16.1 mph 23.0 mph N/A   Clear
5:35 PM 91.4 °F 93.2 °F 64.4 °F 41% 29.76 in 10.0 mi SSW 16.1 mph 23.0 mph N/A   Clear
5:55 PM 91.4 °F 94.0 °F 66.2 °F 43% 29.77 in 10.0 mi SSW 11.5 mph 20.7 mph N/A   Clear
6:15 PM 91.4 °F 95.4 °F 68.0 °F 46% 29.77 in 10.0 mi SSW 12.7 mph 18.4 mph N/A   Clear
6:35 PM 91.4 °F 94.0 °F 66.2 °F 43% 29.76 in 10.0 mi SSW 11.5 mph 17.3 mph N/A   Clear
6:55 PM 89.6 °F 93.4 °F 68.0 °F 49% 29.76 in 10.0 mi South 9.2 mph - N/A   Clear
7:15 PM 89.6 °F 93.4 °F 68.0 °F 49% 29.76 in 10.0 mi South 9.2 mph - N/A   Clear
7:35 PM 89.6 °F 93.4 °F 68.0 °F 49% 29.76 in 10.0 mi South 9.2 mph - N/A   Clear
7:55 PM 87.8 °F 92.6 °F 69.8 °F 55% 29.76 in 10.0 mi SSE 9.2 mph - N/A   Clear
8:15 PM 86.0 °F 90.4 °F 69.8 °F 58% 29.76 in 10.0 mi SSE 9.2 mph - N/A   Clear
8:35 PM 86.0 °F 90.4 °F 69.8 °F 58% 29.76 in 10.0 mi South 13.8 mph - N/A   Clear
8:55 PM 84.2 °F 88.4 °F 69.8 °F 62% 29.76 in 10.0 mi South 15.0 mph - N/A   Clear
9:15 PM 82.4 °F 86.3 °F 69.8 °F 66% 29.77 in 10.0 mi South 13.8 mph 19.6 mph N/A   Clear
9:35 PM 82.4 °F 86.3 °F 69.8 °F 66% 29.77 in 10.0 mi South 13.8 mph 19.6 mph N/A   Clear
9:55 PM 82.4 °F 86.3 °F 69.8 °F 66% 29.78 in 10.0 mi South 12.7 mph - N/A   Clear
10:15 PM 82.4 °F 86.3 °F 69.8 °F 66% 29.78 in 10.0 mi South 12.7 mph - N/A   Clear
10:35 PM 82.4 °F 86.3 °F 69.8 °F 66% 29.79 in 10.0 mi South 13.8 mph - N/A   Clear
10:55 PM 82.4 °F 86.3 °F 69.8 °F 66% 29.79 in 10.0 mi South 12.7 mph - N/A   Clear
11:15 PM 80.6 °F 83.9 °F 69.8 °F 70% 29.80 in 10.0 mi South 12.7 mph - N/A   Clear
11:35 PM 80.6 °F 83.9 °F 69.8 °F 70% 29.80 in 10.0 mi South 11.5 mph - N/A   Clear
11:55 PM 80.6 °F 83.9 °F 69.8 °F 70% 29.81 in 10.0 mi South 10.4 mph - N/A   Clear